STARLINK-32569, 61867

Orbit data source: Space-Track

STARLINK-32569, 61867 is a payload satellite owned by SpaceX/Seattle (US) in LEO that was launched on Thu, 07 Nov 2024 UTC via an FALCON 9 launch vehicle from the Air Force Eastern Test Range (AFETR). Payload-class satellites include a variety of spacecraft equipped with specific instruments for various scientific and technological missions. These include communications satellites like Starlink; space stations such as the ISS; scientific satellites like the Hubble; Earth observation satellites from companies like Planet Labs, Umbra, and HawkEye 360; GPS; miniature CubeSats for education and research; and military/defense satellites.

Loading next visibility...
Identifier
61867, 2024-202Y
Orbit
LEO
Country
Flag of USUS
Related business
Manufacturer
SpaceX/Seattle
Mission
Operational Commercial Communications
Bus & Motor
STARLINK V2M, Unknown motor
Mass
730 kg wet, ~700 kg dry
Launch date (UTC)
2024-11-07 (2 years ago)
Launch vehicle
FALCON 9
Launch site
Air Force Eastern Test Range (AFETR)
Object type
Payload
Rocket body
Debris
Shape & HBR
Box + 2 Pan, 17.7 m
Radar Cross Section
33.884 m², Large (>1 m²)

Expand to show TLE details & history
Last TLE update: 1 day ago

TLE from 1 day ago
0 STARLINK-32569
1 61867U 24202Y   26257.46475668 -.00000023  00000-0  86902-5 0  9992
2 61867  43.0015 252.2887 0001126 246.9687 113.1046 15.27577361104206
Epoch: 2026-09-14T11:09Z
TLE epoch observation values (Epoch: 2026-09-14T11:09:14.977Z)
Latitude
-0°
Longitude
91.53162°
Altitude
483.136 km
Speed
7.625 km/s
True Right ascension
16h 49m 09s
True Declination
0° 00' 00"
Sunlit
Object was in daylight at epoch
Visualization orbit readout
Latitude
Unknown
Longitude
Unknown
Altitude
Unknown
Speed
Unknown
Apparent Right ascension
Unknown
Apparent Declination
Unknown
Sunlit
N/A
Visualization observer readout
Local Sidereal Time
06:28:37
Azimuth
Unknown
Elevation
Unknown
Doppler factor
Unknown
Orbital elements
Apogee altitude
485.775 km
Perigee altitude
484.229 km
Semi-major axis
6,863.139 km
Eccentricity
0.00011
Inclination
43.0015°
RAAN
252.2887°
Arg. of periapsis
246.9687°
True anomaly
113.11647°
Mean anomaly
113.1046°
Eccentric anomaly
113.11053°
Mean motion
3.81732 °/min
Orbital period
94.31 mins
BSTAR
0.0000086902
Loading maneuver chart data...
Computing Atmospheric mass density...
Loading historical data...
Loading historical data...
Loading historical data...
Loading historical data...
Loading historical data...
Loading historical data...
Loading historical data...

Documentation

Showing up to 5 results
|